Time,TemperatureF,DewpointF,PressureIn,WindDirection,WindDirectionDegrees,WindSpeedMPH,WindSpeedGustMPH,Humidity,HourlyPrecipIn,Conditions,Clouds,dailyrainin,SolarRadiationWatts/m^2,SoftwareType,DateUTC
2013-10-11 00:00:00,69.3,65.9,30.05,ENE,78,0.0,0.0,89,0.00,,,0.00,0,Wunderground v.1.15,2013-10-11 04:00:00,
2013-10-11 00:01:00,69.3,65.9,30.05,ENE,78,0.0,6.0,89,0.00,,,0.00,0,Wunderground v.1.15,2013-10-11 04:01:00,
2013-10-11 00:02:00,69.3,65.9,30.05,ENE,78,0.0,6.0,89,0.00,,,0.00,0,Wunderground v.1.15,2013-10-11 04:02:00,
2013-10-11 00:03:00,69.3,65.9,30.05,ENE,78,0.0,6.0,89,0.00,,,0.00,0,Wunderground v.1.15,2013-10-11 04:03:00,
2013-10-11 00:07:00,69.2,66.1,30.04,ENE,78,0.0,6.0,90,0.00,,,0.00,0,Wunderground v.1.15,2013-10-11 04:07:00,
2013-10-11 00:12:00,69.1,66.0,30.04,ENE,78,0.0,0.0,90,0.00,,,0.00,0,Wunderground v.1.15,2013-10-11 04:12:00,
2013-10-11 00:18:00,69.0,65.9,30.04,ENE,78,0.0,0.0,90,0.00,,,0.00,0,Wunderground v.1.15,2013-10-11 04:18:00,
2013-10-11 00:21:00,68.9,65.8,30.03,ENE,78,0.0,0.0,90,0.00,,,0.00,0,Wunderground v.1.15,2013-10-11 04:21:00,
2013-10-11 00:26:00,68.9,65.8,30.03,ENE,78,0.0,0.0,90,0.00,,,0.00,0,Wunderground v.1.15,2013-10-11 04:26:00,
2013-10-11 00:31:00,68.8,65.7,30.03,ENE,78,0.0,0.0,90,0.00,,,0.00,0,Wunderground v.1.15,2013-10-11 04:31:00,
2013-10-11 00:36:00,68.6,65.9,30.03,ENE,78,0.0,0.0,91,0.00,,,0.00,0,Wunderground v.1.15,2013-10-11 04:36:00,
2013-10-11 00:42:00,68.5,65.8,30.03,ENE,78,1.0,1.0,91,0.00,,,0.00,0,Wunderground v.1.15,2013-10-11 04:42:00,
2013-10-11 00:47:00,68.4,65.7,30.03,ENE,78,1.0,2.0,91,0.00,,,0.00,0,Wunderground v.1.15,2013-10-11 04:47:00,
2013-10-11 00:52:00,68.4,65.7,30.03,ENE,78,1.0,2.0,91,0.00,,,0.00,0,Wunderground v.1.15,2013-10-11 04:52:00,
2013-10-11 00:58:00,68.4,65.7,30.02,ENE,78,1.0,2.0,91,0.00,,,0.00,0,Wunderground v.1.15,2013-10-11 04:58:00,
2013-10-11 01:03:00,68.3,65.9,30.02,ENE,78,0.0,4.0,92,0.00,,,0.00,0,Wunderground v.1.15,2013-10-11 05:03:00,
2013-10-11 01:09:00,68.3,65.9,30.02,ENE,78,0.0,4.0,92,0.00,,,0.00,0,Wunderground v.1.15,2013-10-11 05:09:00,
2013-10-11 01:14:00,68.2,65.8,30.02,ENE,78,0.0,0.0,92,0.00,,,0.00,0,Wunderground v.1.15,2013-10-11 05:14:00,
2013-10-11 01:19:00,68.1,65.7,30.02,ENE,78,0.0,0.0,92,0.00,,,0.00,0,Wunderground v.1.15,2013-10-11 05:19:00,
2013-10-11 01:25:00,68.2,65.8,30.02,ENE,78,0.0,0.0,92,0.00,,,0.00,0,Wunderground v.1.15,2013-10-11 05:25:00,
2013-10-11 01:30:00,68.2,65.8,30.01,ENE,78,0.0,0.0,92,0.00,,,0.00,0,Wunderground v.1.15,2013-10-11 05:30:00,
2013-10-11 01:35:00,68.2,65.8,30.01,ENE,78,0.0,0.0,92,0.00,,,0.00,0,Wunderground v.1.15,2013-10-11 05:35:00,
2013-10-11 01:41:00,68.1,65.7,30.02,ENE,78,0.0,0.0,92,0.00,,,0.00,0,Wunderground v.1.15,2013-10-11 05:41:00,
2013-10-11 01:46:00,68.0,65.6,30.02,ENE,78,0.0,0.0,92,0.00,,,0.00,0,Wunderground v.1.15,2013-10-11 05:46:00,
2013-10-11 01:51:00,68.0,65.6,30.01,ENE,78,0.0,0.0,92,0.00,,,0.00,0,Wunderground v.1.15,2013-10-11 05:51:00,
2013-10-11 01:56:00,67.9,65.5,30.01,ENE,78,0.0,0.0,92,0.00,,,0.00,0,Wunderground v.1.15,2013-10-11 05:56:00,
2013-10-11 02:02:00,67.9,65.5,30.02,ENE,78,0.0,3.0,92,0.00,,,0.00,0,Wunderground v.1.15,2013-10-11 06:02:00,
2013-10-11 02:07:00,68.0,65.6,30.01,ENE,78,0.0,3.0,92,0.00,,,0.00,0,Wunderground v.1.15,2013-10-11 06:07:00,
2013-10-11 02:13:00,67.8,65.4,30.01,ENE,78,0.0,0.0,92,0.00,,,0.00,0,Wunderground v.1.15,2013-10-11 06:13:00,
2013-10-11 02:18:00,67.7,65.3,30.01,ENE,78,0.0,0.0,92,0.00,,,0.00,0,Wunderground v.1.15,2013-10-11 06:18:00,
2013-10-11 02:23:00,67.6,65.2,30.01,ENE,78,0.0,0.0,92,0.00,,,0.00,0,Wunderground v.1.15,2013-10-11 06:23:00,
2013-10-11 02:29:00,67.6,65.2,30.01,ENE,78,0.0,0.0,92,0.00,,,0.00,0,Wunderground v.1.15,2013-10-11 06:29:00,
2013-10-11 02:34:00,67.6,65.2,30.01,ENE,78,0.0,0.0,92,0.00,,,0.00,0,Wunderground v.1.15,2013-10-11 06:34:00,
2013-10-11 02:39:00,67.7,65.6,30.01,ENE,78,1.0,3.0,93,0.00,,,0.00,0,Wunderground v.1.15,2013-10-11 06:39:00,
2013-10-11 02:45:00,67.9,65.8,30.01,ENE,78,1.0,2.0,93,0.00,,,0.00,0,Wunderground v.1.15,2013-10-11 06:45:00,
2013-10-11 02:50:00,67.9,65.8,30.01,ENE,78,1.0,1.0,93,0.00,,,0.00,0,Wunderground v.1.15,2013-10-11 06:50:00,
2013-10-11 02:55:00,67.7,65.6,30.01,ENE,78,0.0,1.0,93,0.00,,,0.00,0,Wunderground v.1.15,2013-10-11 06:55:00,
2013-10-11 03:01:00,67.6,65.5,30.01,ENE,78,0.0,0.0,93,0.00,,,0.00,0,Wunderground v.1.15,2013-10-11 07:01:00,
2013-10-11 03:06:00,67.5,65.4,30.00,ENE,78,0.0,0.0,93,0.00,,,0.00,0,Wunderground v.1.15,2013-10-11 07:06:00,
2013-10-11 03:11:00,67.4,65.3,30.01,ENE,78,0.0,0.0,93,0.00,,,0.00,0,Wunderground v.1.15,2013-10-11 07:11:00,
2013-10-11 03:16:00,67.3,65.2,30.00,ENE,78,0.0,0.0,93,0.00,,,0.00,0,Wunderground v.1.15,2013-10-11 07:16:00,
2013-10-11 03:22:00,67.1,65.0,30.00,ENE,78,0.0,0.0,93,0.00,,,0.00,0,Wunderground v.1.15,2013-10-11 07:22:00,
2013-10-11 03:28:00,67.0,64.9,30.00,ENE,78,0.0,0.0,93,0.00,,,0.00,0,Wunderground v.1.15,2013-10-11 07:28:00,
2013-10-11 03:34:00,67.0,64.9,30.00,ENE,78,0.0,0.0,93,0.00,,,0.00,0,Wunderground v.1.15,2013-10-11 07:34:00,
2013-10-11 03:40:00,67.1,65.3,30.00,ENE,78,0.0,2.0,94,0.00,,,0.00,0,Wunderground v.1.15,2013-10-11 07:40:00,
2013-10-11 03:46:00,67.0,64.9,30.00,ENE,78,1.0,3.0,93,0.00,,,0.00,0,Wunderground v.1.15,2013-10-11 07:46:00,
2013-10-11 03:52:00,67.0,65.2,30.00,ENE,78,2.0,3.0,94,0.00,,,0.00,0,Wunderground v.1.15,2013-10-11 07:52:00,
2013-10-11 03:57:00,67.0,65.2,30.00,ENE,78,2.0,3.0,94,0.00,,,0.00,0,Wunderground v.1.15,2013-10-11 07:57:00,
2013-10-11 04:02:00,67.0,65.2,30.00,ENE,78,1.0,4.0,94,0.00,,,0.00,0,Wunderground v.1.15,2013-10-11 08:02:00,
2013-10-11 04:08:00,66.8,65.0,30.00,ENE,78,0.0,4.0,94,0.00,,,0.00,0,Wunderground v.1.15,2013-10-11 08:08:00,
2013-10-11 04:14:00,66.8,65.0,30.00,ENE,78,0.0,4.0,94,0.00,,,0.00,0,Wunderground v.1.15,2013-10-11 08:14:00,
2013-10-11 04:20:00,66.7,64.9,30.00,ENE,78,0.0,4.0,94,0.00,,,0.00,0,Wunderground v.1.15,2013-10-11 08:20:00,
2013-10-11 04:25:00,66.8,65.0,30.00,ENE,78,0.0,4.0,94,0.00,,,0.00,0,Wunderground v.1.15,2013-10-11 08:25:00,
2013-10-11 04:30:00,66.7,64.9,30.00,ENE,78,0.0,4.0,94,0.00,,,0.00,0,Wunderground v.1.15,2013-10-11 08:30:00,
2013-10-11 04:36:00,66.5,64.7,30.00,ENE,78,0.0,4.0,94,0.00,,,0.00,0,Wunderground v.1.15,2013-10-11 08:36:00,
2013-10-11 04:42:00,66.5,64.7,30.00,ENE,78,0.0,4.0,94,0.00,,,0.00,0,Wunderground v.1.15,2013-10-11 08:42:00,
2013-10-11 04:47:00,66.4,64.6,30.00,ENE,78,0.0,4.0,94,0.00,,,0.00,0,Wunderground v.1.15,2013-10-11 08:47:00,
2013-10-11 04:53:00,66.3,64.5,30.00,ENE,78,1.0,4.0,94,0.00,,,0.00,0,Wunderground v.1.15,2013-10-11 08:53:00,
2013-10-11 04:59:00,66.4,64.9,30.01,ENE,78,2.0,4.0,95,0.00,,,0.00,0,Wunderground v.1.15,2013-10-11 08:59:00,
2013-10-11 05:05:00,66.3,64.8,30.01,ENE,78,1.0,4.0,95,0.00,,,0.00,0,Wunderground v.1.15,2013-10-11 09:05:00,
2013-10-11 05:10:00,66.3,64.8,30.01,ENE,78,1.0,4.0,95,0.00,,,0.00,0,Wunderground v.1.15,2013-10-11 09:10:00,
2013-10-11 05:16:00,66.5,65.0,30.01,ENE,78,1.0,4.0,95,0.00,,,0.00,0,Wunderground v.1.15,2013-10-11 09:16:00,
2013-10-11 05:22:00,66.5,65.0,30.01,ENE,78,1.0,4.0,95,0.00,,,0.00,0,Wunderground v.1.15,2013-10-11 09:22:00,
2013-10-11 05:28:00,66.6,65.1,30.01,ENE,78,1.0,4.0,95,0.00,,,0.00,0,Wunderground v.1.15,2013-10-11 09:28:00,
2013-10-11 05:33:00,66.6,65.1,30.02,ENE,78,1.0,4.0,95,0.00,,,0.00,0,Wunderground v.1.15,2013-10-11 09:33:00,
2013-10-11 05:39:00,66.6,65.1,30.02,ENE,78,0.0,4.0,95,0.00,,,0.00,0,Wunderground v.1.15,2013-10-11 09:39:00,
2013-10-11 05:45:00,66.6,65.1,30.02,ENE,78,0.0,4.0,95,0.00,,,0.00,0,Wunderground v.1.15,2013-10-11 09:45:00,
2013-10-11 05:50:00,66.5,65.0,30.03,ENE,78,1.0,1.0,95,0.00,,,0.00,0,Wunderground v.1.15,2013-10-11 09:50:00,
2013-10-11 05:56:00,66.6,65.1,30.03,ENE,78,1.0,4.0,95,0.00,,,0.00,0,Wunderground v.1.15,2013-10-11 09:56:00,
2013-10-11 06:02:00,66.7,65.2,30.03,ENE,78,2.0,4.0,95,0.00,,,0.00,0,Wunderground v.1.15,2013-10-11 10:02:00,
2013-10-11 06:08:00,66.6,65.1,30.03,ENE,78,1.0,4.0,95,0.00,,,0.00,0,Wunderground v.1.15,2013-10-11 10:08:00,
2013-10-11 06:14:00,66.6,65.1,30.03,ENE,78,0.0,4.0,95,0.00,,,0.00,0,Wunderground v.1.15,2013-10-11 10:14:00,
2013-10-11 06:19:00,66.5,65.0,30.03,ENE,78,1.0,4.0,95,0.00,,,0.00,0,Wunderground v.1.15,2013-10-11 10:19:00,
2013-10-11 06:25:00,66.6,65.1,30.03,ENE,78,1.0,4.0,95,0.00,,,0.00,0,Wunderground v.1.15,2013-10-11 10:25:00,
2013-10-11 06:31:00,66.6,65.1,30.03,ENE,78,0.0,4.0,95,0.00,,,0.00,0,Wunderground v.1.15,2013-10-11 10:31:00,
2013-10-11 06:36:00,66.6,65.1,30.03,ENE,78,0.0,4.0,95,0.00,,,0.00,0,Wunderground v.1.15,2013-10-11 10:36:00,
2013-10-11 06:42:00,66.4,64.9,30.03,ENE,78,0.0,4.0,95,0.00,,,0.00,0,Wunderground v.1.15,2013-10-11 10:42:00,
2013-10-11 06:47:00,66.3,64.8,30.03,ENE,78,0.0,4.0,95,0.00,,,0.00,0,Wunderground v.1.15,2013-10-11 10:47:00,
2013-10-11 06:53:00,66.1,64.6,30.03,ENE,78,0.0,4.0,95,0.00,,,0.00,0,Wunderground v.1.15,2013-10-11 10:53:00,
2013-10-11 06:59:00,66.2,64.7,30.03,ENE,78,0.0,4.0,95,0.00,,,0.00,0,Wunderground v.1.15,2013-10-11 10:59:00,
2013-10-11 07:05:00,66.1,64.6,30.03,ENE,78,0.0,4.0,95,0.00,,,0.00,0,Wunderground v.1.15,2013-10-11 11:05:00,
2013-10-11 07:10:00,66.1,64.6,30.04,ENE,78,0.0,4.0,95,0.00,,,0.00,0,Wunderground v.1.15,2013-10-11 11:10:00,
2013-10-11 07:16:00,66.1,64.6,30.04,ENE,78,0.0,4.0,95,0.00,,,0.00,0,Wunderground v.1.15,2013-10-11 11:16:00,
2013-10-11 07:22:00,66.0,64.5,30.04,ENE,74,0.0,4.0,95,0.00,,,0.00,0,Wunderground v.1.15,2013-10-11 11:22:00,
2013-10-11 07:28:00,66.0,64.5,30.04,ENE,75,0.0,4.0,95,0.00,,,0.00,5,Wunderground v.1.15,2013-10-11 11:28:00,
2013-10-11 07:33:00,66.1,64.6,30.05,ENE,74,0.0,4.0,95,0.00,,,0.00,9,Wunderground v.1.15,2013-10-11 11:33:00,
2013-10-11 07:39:00,66.0,64.5,30.05,ENE,74,0.0,4.0,95,0.00,,,0.00,12,Wunderground v.1.15,2013-10-11 11:39:00,
2013-10-11 07:45:00,66.2,64.7,30.05,ENE,74,0.0,4.0,95,0.00,,,0.00,14,Wunderground v.1.15,2013-10-11 11:45:00,
2013-10-11 07:50:00,66.2,64.7,30.05,ENE,74,0.0,4.0,95,0.00,,,0.00,18,Wunderground v.1.15,2013-10-11 11:50:00,
2013-10-11 07:56:00,66.5,65.3,30.05,ENE,74,0.0,4.0,96,0.00,,,0.00,21,Wunderground v.1.15,2013-10-11 11:56:00,
2013-10-11 08:02:00,66.9,65.7,30.05,ENE,74,1.0,4.0,96,0.00,,,0.00,67,Wunderground v.1.15,2013-10-11 12:02:00,
2013-10-11 08:08:00,67.6,66.4,30.05,ENE,74,2.0,4.0,96,0.00,,,0.00,100,Wunderground v.1.15,2013-10-11 12:08:00,
2013-10-11 08:13:00,68.3,67.1,30.06,ENE,74,1.0,4.0,96,0.00,,,0.00,116,Wunderground v.1.15,2013-10-11 12:13:00,
2013-10-11 08:19:00,69.1,68.2,30.06,ENE,74,0.0,4.0,97,0.00,,,0.00,137,Wunderground v.1.15,2013-10-11 12:19:00,
2013-10-11 08:25:00,69.9,69.0,30.06,ENE,74,1.0,4.0,97,0.00,,,0.00,153,Wunderground v.1.15,2013-10-11 12:25:00,
2013-10-11 08:31:00,70.7,69.5,30.06,ENE,74,2.0,4.0,96,0.00,,,0.00,171,Wunderground v.1.15,2013-10-11 12:31:00,
2013-10-11 08:36:00,71.3,70.1,30.07,ENE,74,0.0,4.0,96,0.00,,,0.00,186,Wunderground v.1.15,2013-10-11 12:36:00,
2013-10-11 08:42:00,71.8,70.6,30.07,ENE,74,0.0,4.0,96,0.00,,,0.00,204,Wunderground v.1.15,2013-10-11 12:42:00,
2013-10-11 08:48:00,72.2,70.7,30.07,ENE,74,0.0,4.0,95,0.00,,,0.00,220,Wunderground v.1.15,2013-10-11 12:48:00,
2013-10-11 08:54:00,72.9,71.1,30.07,ENE,74,0.0,4.0,94,0.00,,,0.00,237,Wunderground v.1.15,2013-10-11 12:54:00,
2013-10-11 09:00:00,73.1,70.6,30.08,ENE,74,0.0,4.0,92,0.00,,,0.00,257,Wunderground v.1.15,2013-10-11 13:00:00,
2013-10-11 09:06:00,73.5,70.7,30.08,ENE,74,1.0,4.0,91,0.00,,,0.00,274,Wunderground v.1.15,2013-10-11 13:06:00,
2013-10-11 09:12:00,73.5,70.1,30.08,ENE,74,1.0,4.0,89,0.00,,,0.00,292,Wunderground v.1.15,2013-10-11 13:12:00,
2013-10-11 09:18:00,73.6,69.8,30.08,ENE,74,1.0,4.0,88,0.00,,,0.00,311,Wunderground v.1.15,2013-10-11 13:18:00,
2013-10-11 09:23:00,73.8,69.3,30.08,ENE,74,1.0,4.0,86,0.00,,,0.00,327,Wunderground v.1.15,2013-10-11 13:23:00,
2013-10-11 09:29:00,74.4,70.3,30.09,ENE,74,0.0,4.0,87,0.00,,,0.00,359,Wunderground v.1.15,2013-10-11 13:29:00,
2013-10-11 09:35:00,74.6,69.8,30.09,ENE,74,0.0,4.0,85,0.00,,,0.00,388,Wunderground v.1.15,2013-10-11 13:35:00,
2013-10-11 09:41:00,74.9,69.4,30.08,ENE,74,0.0,4.0,83,0.00,,,0.00,415,Wunderground v.1.15,2013-10-11 13:41:00,
2013-10-11 09:47:00,75.3,69.8,30.08,ENE,74,0.0,4.0,83,0.00,,,0.00,434,Wunderground v.1.15,2013-10-11 13:47:00,
2013-10-11 09:53:00,75.8,69.9,30.08,ENE,74,0.0,4.0,82,0.00,,,0.00,454,Wunderground v.1.15,2013-10-11 13:53:00,
2013-10-11 09:59:00,76.3,69.7,30.08,ENE,74,0.0,4.0,80,0.00,,,0.00,475,Wunderground v.1.15,2013-10-11 13:59:00,
2013-10-11 10:04:00,76.6,70.7,30.08,ENE,74,0.0,4.0,82,0.00,,,0.00,483,Wunderground v.1.15,2013-10-11 14:04:00,
2013-10-11 10:10:00,76.9,70.3,30.08,ENE,74,0.0,4.0,80,0.00,,,0.00,504,Wunderground v.1.15,2013-10-11 14:10:00,
2013-10-11 10:16:00,77.2,70.2,30.08,ENE,74,0.0,4.0,79,0.00,,,0.00,520,Wunderground v.1.15,2013-10-11 14:16:00,
2013-10-11 10:22:00,77.5,70.1,30.09,ENE,74,0.0,4.0,78,0.00,,,0.00,541,Wunderground v.1.15,2013-10-11 14:22:00,
2013-10-11 10:27:00,77.6,70.2,30.08,ENE,74,1.0,4.0,78,0.00,,,0.00,555,Wunderground v.1.15,2013-10-11 14:27:00,
2013-10-11 10:33:00,77.8,70.0,30.09,ENE,74,1.0,4.0,77,0.00,,,0.00,575,Wunderground v.1.15,2013-10-11 14:33:00,
2013-10-11 10:39:00,78.2,70.4,30.08,ENE,74,1.0,4.0,77,0.00,,,0.00,585,Wunderground v.1.15,2013-10-11 14:39:00,
2013-10-11 10:45:00,78.7,70.1,30.08,ENE,74,2.0,4.0,75,0.00,,,0.00,606,Wunderground v.1.15,2013-10-11 14:45:00,
2013-10-11 10:51:00,79.0,70.4,30.08,ENE,74,2.0,4.0,75,0.00,,,0.00,624,Wunderground v.1.15,2013-10-11 14:51:00,
2013-10-11 10:57:00,79.2,69.4,30.08,ENE,74,2.0,4.0,72,0.00,,,0.00,638,Wunderground v.1.15,2013-10-11 14:57:00,
2013-10-11 11:03:00,79.4,69.6,30.08,ENE,74,3.0,4.0,72,0.00,,,0.00,652,Wunderground v.1.15,2013-10-11 15:03:00,
2013-10-11 11:08:00,79.8,68.7,30.08,ENE,74,2.0,4.0,69,0.00,,,0.00,664,Wunderground v.1.15,2013-10-11 15:08:00,
2013-10-11 11:14:00,80.5,69.8,30.08,NE,49,2.0,4.0,70,0.00,,,0.00,679,Wunderground v.1.15,2013-10-11 15:14:00,
2013-10-11 11:20:00,80.8,68.8,30.08,NE,48,2.0,2.0,67,0.00,,,0.00,694,Wunderground v.1.15,2013-10-11 15:20:00,
2013-10-11 11:26:00,81.1,68.7,30.07,NE,48,1.0,4.0,66,0.00,,,0.00,707,Wunderground v.1.15,2013-10-11 15:26:00,
2013-10-11 11:31:00,81.2,68.3,30.07,NE,48,1.0,4.0,65,0.00,,,0.00,715,Wunderground v.1.15,2013-10-11 15:31:00,
2013-10-11 11:37:00,81.1,69.1,30.08,NE,34,2.0,4.0,67,0.00,,,0.00,726,Wunderground v.1.15,2013-10-11 15:37:00,
2013-10-11 11:43:00,81.0,69.0,30.07,NNW,340,3.0,5.0,67,0.00,,,0.00,742,Wunderground v.1.15,2013-10-11 15:43:00,
2013-10-11 11:49:00,81.2,69.6,30.08,NW,316,4.0,5.0,68,0.00,,,0.00,752,Wunderground v.1.15,2013-10-11 15:49:00,
2013-10-11 11:54:00,81.2,69.6,30.07,NW,316,4.0,4.0,68,0.00,,,0.00,758,Wunderground v.1.15,2013-10-11 15:54:00,
2013-10-11 12:00:00,81.4,68.9,30.07,NW,308,4.0,4.0,66,0.00,,,0.00,768,Wunderground v.1.15,2013-10-11 16:00:00,
2013-10-11 12:06:00,81.5,68.6,30.07,NW,307,3.0,4.0,65,0.00,,,0.00,779,Wunderground v.1.15,2013-10-11 16:06:00,
2013-10-11 12:12:00,81.7,69.7,30.07,NW,307,3.0,4.0,67,0.00,,,0.00,786,Wunderground v.1.15,2013-10-11 16:12:00,
2013-10-11 12:17:00,81.8,68.9,30.07,NW,308,2.0,4.0,65,0.00,,,0.00,798,Wunderground v.1.15,2013-10-11 16:17:00,
2013-10-11 12:23:00,82.1,68.3,30.06,NW,308,1.0,4.0,63,0.00,,,0.00,800,Wunderground v.1.15,2013-10-11 16:23:00,
2013-10-11 12:29:00,82.6,68.3,30.06,NW,308,0.0,4.0,62,0.00,,,0.00,819,Wunderground v.1.15,2013-10-11 16:29:00,
2013-10-11 12:35:00,83.2,71.1,30.06,North,360,3.0,11.0,67,0.00,,,0.00,816,Wunderground v.1.15,2013-10-11 16:35:00,
2013-10-11 12:40:00,83.3,68.0,30.06,North,360,4.0,4.0,60,0.00,,,0.00,817,Wunderground v.1.15,2013-10-11 16:40:00,
2013-10-11 12:46:00,83.6,69.2,30.06,North,360,1.0,4.0,62,0.00,,,0.00,824,Wunderground v.1.15,2013-10-11 16:46:00,
2013-10-11 12:52:00,83.9,69.5,30.06,North,360,1.0,4.0,62,0.00,,,0.00,840,Wunderground v.1.15,2013-10-11 16:52:00,
2013-10-11 12:57:00,84.0,69.1,30.05,North,360,1.0,4.0,61,0.00,,,0.00,846,Wunderground v.1.15,2013-10-11 16:57:00,
2013-10-11 13:03:00,84.3,68.4,30.05,North,359,1.0,4.0,59,0.00,,,0.00,854,Wunderground v.1.15,2013-10-11 17:03:00,
2013-10-11 13:09:00,84.4,70.4,30.05,North,349,2.0,4.0,63,0.00,,,0.00,861,Wunderground v.1.15,2013-10-11 17:09:00,
2013-10-11 13:15:00,84.1,68.2,30.05,NNW,340,4.0,6.0,59,0.00,,,0.00,895,Wunderground v.1.15,2013-10-11 17:15:00,
2013-10-11 13:20:00,84.1,68.7,30.04,NNW,339,2.0,4.0,60,0.00,,,0.00,928,Wunderground v.1.15,2013-10-11 17:20:00,
2013-10-11 13:26:00,84.3,69.4,30.04,NW,315,3.0,5.0,61,0.00,,,0.00,960,Wunderground v.1.15,2013-10-11 17:26:00,
2013-10-11 13:32:00,84.1,68.7,30.03,NW,315,3.0,4.0,60,0.00,,,0.00,895,Wunderground v.1.15,2013-10-11 17:32:00,
2013-10-11 13:38:00,84.0,68.6,30.03,NW,325,3.0,8.0,60,0.00,,,0.00,863,Wunderground v.1.15,2013-10-11 17:38:00,
2013-10-11 13:43:00,84.2,67.8,30.03,NW,325,4.0,5.0,58,0.00,,,0.00,870,Wunderground v.1.15,2013-10-11 17:43:00,
2013-10-11 13:48:00,84.4,68.5,30.03,WNW,296,3.0,7.0,59,0.00,,,0.00,905,Wunderground v.1.15,2013-10-11 17:48:00,
2013-10-11 13:54:00,84.0,68.6,30.02,NW,311,6.0,9.0,60,0.00,,,0.00,826,Wunderground v.1.15,2013-10-11 17:54:00,
2013-10-11 14:00:00,83.8,67.9,30.02,NW,313,7.0,7.0,59,0.00,,,0.00,916,Wunderground v.1.15,2013-10-11 18:00:00,
2013-10-11 14:06:00,83.6,68.7,30.02,NW,308,7.0,8.0,61,0.00,,,0.00,856,Wunderground v.1.15,2013-10-11 18:06:00,
2013-10-11 14:12:00,83.8,67.9,30.02,NW,308,6.0,9.0,59,0.00,,,0.00,854,Wunderground v.1.15,2013-10-11 18:12:00,
2013-10-11 14:18:00,84.0,68.6,30.02,WNW,303,7.0,9.0,60,0.00,,,0.00,838,Wunderground v.1.15,2013-10-11 18:18:00,
2013-10-11 14:24:00,84.0,67.1,30.01,NW,317,7.0,11.0,57,0.00,,,0.00,816,Wunderground v.1.15,2013-10-11 18:24:00,
2013-10-11 14:29:00,84.1,68.7,30.01,NW,312,7.0,11.0,60,0.00,,,0.00,802,Wunderground v.1.15,2013-10-11 18:29:00,
2013-10-11 14:35:00,84.3,68.4,30.01,NNW,331,7.0,9.0,59,0.00,,,0.00,793,Wunderground v.1.15,2013-10-11 18:35:00,
2013-10-11 14:41:00,84.4,67.5,30.00,NW,324,7.0,7.0,57,0.00,,,0.00,800,Wunderground v.1.15,2013-10-11 18:41:00,
2013-10-11 14:47:00,84.4,67.0,30.00,NNW,346,6.0,9.0,56,0.00,,,0.00,784,Wunderground v.1.15,2013-10-11 18:47:00,
2013-10-11 14:52:00,84.6,71.1,30.00,NW,304,7.0,10.0,64,0.00,,,0.00,766,Wunderground v.1.15,2013-10-11 18:52:00,
2013-10-11 14:58:00,84.5,67.6,30.00,NW,325,8.0,10.0,57,0.00,,,0.00,747,Wunderground v.1.15,2013-10-11 18:58:00,
2013-10-11 15:04:00,84.6,67.2,30.00,NW,321,8.0,10.0,56,0.00,,,0.00,738,Wunderground v.1.15,2013-10-11 19:04:00,
2013-10-11 15:10:00,84.9,70.4,30.00,NW,323,7.0,7.0,62,0.00,,,0.00,722,Wunderground v.1.15,2013-10-11 19:10:00,
2013-10-11 15:16:00,84.9,69.9,30.00,NW,318,6.0,8.0,61,0.00,,,0.00,712,Wunderground v.1.15,2013-10-11 19:16:00,
2013-10-11 15:22:00,84.9,69.5,30.00,NW,317,7.0,10.0,60,0.00,,,0.00,705,Wunderground v.1.15,2013-10-11 19:22:00,
2013-10-11 15:28:00,84.7,67.3,30.00,NNW,344,8.0,11.0,56,0.00,,,0.00,687,Wunderground v.1.15,2013-10-11 19:28:00,
2013-10-11 15:33:00,84.8,69.4,29.99,WNW,300,7.0,8.0,60,0.00,,,0.00,673,Wunderground v.1.15,2013-10-11 19:33:00,
2013-10-11 15:39:00,84.9,69.9,29.99,WNW,295,6.0,13.0,61,0.00,,,0.00,657,Wunderground v.1.15,2013-10-11 19:39:00,
2013-10-11 15:45:00,84.9,68.5,29.99,NNW,346,7.0,10.0,58,0.00,,,0.00,647,Wunderground v.1.15,2013-10-11 19:45:00,
2013-10-11 15:51:00,85.1,70.1,29.99,NW,311,7.0,8.0,61,0.00,,,0.00,631,Wunderground v.1.15,2013-10-11 19:51:00,
2013-10-11 15:57:00,85.2,67.7,29.99,NW,322,6.0,8.0,56,0.00,,,0.00,624,Wunderground v.1.15,2013-10-11 19:57:00,
2013-10-11 16:03:00,85.0,69.6,29.99,NNW,331,7.0,13.0,60,0.00,,,0.00,107,Wunderground v.1.15,2013-10-11 20:03:00,
2013-10-11 16:09:00,85.1,68.7,29.99,NW,322,7.0,13.0,58,0.00,,,0.00,584,Wunderground v.1.15,2013-10-11 20:09:00,
2013-10-11 16:15:00,85.0,69.1,29.99,NW,307,8.0,12.0,59,0.00,,,0.00,575,Wunderground v.1.15,2013-10-11 20:15:00,
2013-10-11 16:20:00,84.9,69.0,29.99,NW,313,8.0,8.0,59,0.00,,,0.00,568,Wunderground v.1.15,2013-10-11 20:20:00,
2013-10-11 16:26:00,84.7,68.3,29.99,NW,304,7.0,8.0,58,0.00,,,0.00,540,Wunderground v.1.15,2013-10-11 20:26:00,
2013-10-11 16:32:00,85.0,69.1,29.99,NNW,348,5.0,6.0,59,0.00,,,0.00,517,Wunderground v.1.15,2013-10-11 20:32:00,
2013-10-11 16:38:00,85.5,68.5,29.99,NNW,329,4.0,11.0,57,0.00,,,0.00,496,Wunderground v.1.15,2013-10-11 20:38:00,
2013-10-11 16:44:00,85.2,67.2,29.99,NNW,339,6.0,10.0,55,0.00,,,0.00,473,Wunderground v.1.15,2013-10-11 20:44:00,
2013-10-11 16:49:00,85.3,67.3,29.98,NNW,341,5.0,10.0,55,0.00,,,0.00,457,Wunderground v.1.15,2013-10-11 20:49:00,
2013-10-11 16:55:00,85.3,69.8,29.99,NW,304,5.0,8.0,60,0.00,,,0.00,439,Wunderground v.1.15,2013-10-11 20:55:00,
2013-10-11 17:01:00,85.1,68.7,29.98,NW,313,6.0,8.0,58,0.00,,,0.00,408,Wunderground v.1.15,2013-10-11 21:01:00,
2013-10-11 17:07:00,85.0,67.5,29.98,North,350,6.0,8.0,56,0.00,,,0.00,383,Wunderground v.1.15,2013-10-11 21:07:00,
2013-10-11 17:12:00,85.1,68.7,29.98,NW,317,6.0,7.0,58,0.00,,,0.00,364,Wunderground v.1.15,2013-10-11 21:12:00,
2013-10-11 17:18:00,85.0,68.1,29.98,NW,316,5.0,7.0,57,0.00,,,0.00,343,Wunderground v.1.15,2013-10-11 21:18:00,
2013-10-11 17:24:00,85.0,68.6,29.98,North,352,5.0,10.0,58,0.00,,,0.00,325,Wunderground v.1.15,2013-10-11 21:24:00,
2013-10-11 17:30:00,85.2,68.2,29.98,NW,323,6.0,7.0,57,0.00,,,0.00,299,Wunderground v.1.15,2013-10-11 21:30:00,
2013-10-11 17:35:00,85.2,69.3,29.98,NW,317,6.0,8.0,59,0.00,,,0.00,225,Wunderground v.1.15,2013-10-11 21:35:00,
2013-10-11 17:41:00,84.9,68.0,29.98,NNW,328,6.0,6.0,57,0.00,,,0.00,255,Wunderground v.1.15,2013-10-11 21:41:00,
2013-10-11 17:47:00,84.9,68.5,29.98,NW,326,5.0,6.0,58,0.00,,,0.00,234,Wunderground v.1.15,2013-10-11 21:47:00,
2013-10-11 17:52:00,84.7,69.8,29.98,NW,319,5.0,7.0,61,0.00,,,0.00,214,Wunderground v.1.15,2013-10-11 21:52:00,
2013-10-11 17:58:00,84.6,67.2,29.98,NNW,338,5.0,7.0,56,0.00,,,0.00,188,Wunderground v.1.15,2013-10-11 21:58:00,
2013-10-11 18:04:00,84.4,69.0,29.98,NW,318,5.0,5.0,60,0.00,,,0.00,160,Wunderground v.1.15,2013-10-11 22:04:00,
2013-10-11 18:10:00,84.3,68.9,29.98,NW,316,5.0,5.0,60,0.00,,,0.00,134,Wunderground v.1.15,2013-10-11 22:10:00,
2013-10-11 18:15:00,84.1,67.2,29.98,NW,322,4.0,7.0,57,0.00,,,0.00,113,Wunderground v.1.15,2013-10-11 22:15:00,
2013-10-11 18:21:00,84.1,68.7,29.98,NW,323,3.0,4.0,60,0.00,,,0.00,88,Wunderground v.1.15,2013-10-11 22:21:00,
2013-10-11 18:27:00,83.9,67.5,29.98,NNW,328,3.0,7.0,58,0.00,,,0.00,69,Wunderground v.1.15,2013-10-11 22:27:00,
2013-10-11 18:33:00,83.5,67.2,29.98,NNW,328,4.0,4.0,58,0.00,,,0.00,47,Wunderground v.1.15,2013-10-11 22:33:00,
2013-10-11 18:38:00,83.2,66.9,29.98,NNW,328,3.0,4.0,58,0.00,,,0.00,21,Wunderground v.1.15,2013-10-11 22:38:00,
2013-10-11 18:44:00,82.7,67.4,29.98,NNW,327,3.0,5.0,60,0.00,,,0.00,16,Wunderground v.1.15,2013-10-11 22:44:00,
2013-10-11 18:50:00,82.2,67.4,29.98,NNW,327,3.0,3.0,61,0.00,,,0.00,14,Wunderground v.1.15,2013-10-11 22:50:00,
2013-10-11 18:56:00,81.6,67.3,29.98,NNW,327,3.0,5.0,62,0.00,,,0.00,7,Wunderground v.1.15,2013-10-11 22:56:00,
2013-10-11 19:02:00,81.1,66.8,29.98,NNW,327,2.0,4.0,62,0.00,,,0.00,0,Wunderground v.1.15,2013-10-11 23:02:00,
2013-10-11 19:07:00,80.7,66.9,29.98,NNW,327,2.0,4.0,63,0.00,,,0.00,0,Wunderground v.1.15,2013-10-11 23:07:00,
2013-10-11 19:13:00,80.1,66.8,29.98,NNW,327,1.0,4.0,64,0.00,,,0.00,0,Wunderground v.1.15,2013-10-11 23:13:00,
2013-10-11 19:19:00,79.7,66.9,29.98,NNW,327,2.0,4.0,65,0.00,,,0.00,0,Wunderground v.1.15,2013-10-11 23:19:00,
2013-10-11 19:24:00,79.3,67.0,29.98,NNW,327,3.0,4.0,66,0.00,,,0.00,0,Wunderground v.1.15,2013-10-11 23:24:00,
2013-10-11 19:30:00,78.9,66.6,29.98,NNW,327,3.0,4.0,66,0.00,,,0.00,0,Wunderground v.1.15,2013-10-11 23:30:00,
2013-10-11 19:36:00,78.6,66.7,29.98,NNW,327,3.0,4.0,67,0.00,,,0.00,0,Wunderground v.1.15,2013-10-11 23:36:00,
2013-10-11 19:42:00,78.4,67.0,29.98,NNW,327,2.0,4.0,68,0.00,,,0.00,0,Wunderground v.1.15,2013-10-11 23:42:00,
2013-10-11 19:47:00,78.2,66.8,29.99,NNW,327,2.0,4.0,68,0.00,,,0.00,0,Wunderground v.1.15,2013-10-11 23:47:00,
2013-10-11 19:53:00,78.1,67.1,29.99,NNW,327,1.0,4.0,69,0.00,,,0.00,0,Wunderground v.1.15,2013-10-11 23:53:00,
2013-10-11 19:59:00,77.9,67.3,29.99,NNW,327,0.0,4.0,70,0.00,,,0.00,0,Wunderground v.1.15,2013-10-11 23:59:00,
2013-10-11 20:05:00,77.8,68.0,29.99,NNW,327,0.0,4.0,72,0.00,,,0.00,0,Wunderground v.1.15,2013-10-12 00:05:00,
2013-10-11 20:10:00,77.6,68.3,29.99,NNW,327,0.0,4.0,73,0.00,,,0.00,0,Wunderground v.1.15,2013-10-12 00:10:00,
2013-10-11 20:16:00,77.5,68.6,29.99,NNW,327,0.0,4.0,74,0.00,,,0.00,0,Wunderground v.1.15,2013-10-12 00:16:00,
2013-10-11 20:22:00,77.3,68.4,30.00,North,11,0.0,5.0,74,0.00,,,0.00,0,Wunderground v.1.15,2013-10-12 00:22:00,
2013-10-11 20:28:00,77.1,67.8,30.00,ENE,73,4.0,7.0,73,0.00,,,0.00,0,Wunderground v.1.15,2013-10-12 00:28:00,
2013-10-11 20:33:00,76.9,67.6,30.00,East,92,5.0,8.0,73,0.00,,,0.00,0,Wunderground v.1.15,2013-10-12 00:33:00,
2013-10-11 20:39:00,76.7,67.8,30.00,East,96,5.0,8.0,74,0.00,,,0.00,0,Wunderground v.1.15,2013-10-12 00:39:00,
2013-10-11 20:45:00,76.6,67.7,30.00,East,98,4.0,8.0,74,0.00,,,0.00,0,Wunderground v.1.15,2013-10-12 00:45:00,
2013-10-11 20:51:00,76.4,67.5,30.00,East,95,3.0,4.0,74,0.00,,,0.00,0,Wunderground v.1.15,2013-10-12 00:51:00,
2013-10-11 20:57:00,76.3,67.8,30.00,East,95,3.0,4.0,75,0.00,,,0.00,0,Wunderground v.1.15,2013-10-12 00:57:00,
2013-10-11 21:03:00,76.1,67.6,30.01,East,95,3.0,4.0,75,0.00,,,0.00,0,Wunderground v.1.15,2013-10-12 01:03:00,
2013-10-11 21:09:00,76.0,67.9,30.01,ESE,103,3.0,6.0,76,0.00,,,0.00,0,Wunderground v.1.15,2013-10-12 01:09:00,
2013-10-11 21:15:00,75.8,67.7,30.01,ESE,104,3.0,5.0,76,0.00,,,0.00,0,Wunderground v.1.15,2013-10-12 01:15:00,
2013-10-11 21:20:00,75.6,67.5,30.01,ESE,108,4.0,5.0,76,0.00,,,0.00,0,Wunderground v.1.15,2013-10-12 01:20:00,
2013-10-11 21:26:00,75.4,67.7,30.01,ESE,111,4.0,5.0,77,0.00,,,0.00,0,Wunderground v.1.15,2013-10-12 01:26:00,
2013-10-11 21:32:00,75.2,67.9,30.02,ESE,111,4.0,4.0,78,0.00,,,0.00,0,Wunderground v.1.15,2013-10-12 01:32:00,
2013-10-11 21:38:00,75.0,67.3,30.02,ESE,111,3.0,4.0,77,0.00,,,0.00,0,Wunderground v.1.15,2013-10-12 01:38:00,
2013-10-11 21:44:00,74.8,67.8,30.02,ESE,111,2.0,4.0,79,0.00,,,0.00,0,Wunderground v.1.15,2013-10-12 01:44:00,
2013-10-11 21:50:00,74.7,67.4,30.03,ESE,111,2.0,2.0,78,0.00,,,0.00,0,Wunderground v.1.15,2013-10-12 01:50:00,
2013-10-11 21:56:00,74.6,67.3,30.03,ESE,111,0.0,4.0,78,0.00,,,0.00,0,Wunderground v.1.15,2013-10-12 01:56:00,
2013-10-11 22:01:00,74.4,67.5,30.03,ESE,111,0.0,4.0,79,0.00,,,0.00,0,Wunderground v.1.15,2013-10-12 02:01:00,
2013-10-11 22:07:00,74.2,67.3,30.03,ESE,111,1.0,4.0,79,0.00,,,0.00,0,Wunderground v.1.15,2013-10-12 02:07:00,
2013-10-11 22:13:00,74.2,67.3,30.03,ESE,111,3.0,4.0,79,0.00,,,0.00,0,Wunderground v.1.15,2013-10-12 02:13:00,
2013-10-11 22:19:00,74.2,67.3,30.03,ESE,111,3.0,4.0,79,0.00,,,0.00,0,Wunderground v.1.15,2013-10-12 02:19:00,
2013-10-11 22:24:00,74.1,67.2,30.03,ESE,111,3.0,4.0,79,0.00,,,0.00,0,Wunderground v.1.15,2013-10-12 02:24:00,
2013-10-11 22:30:00,73.9,67.0,30.03,ESE,111,2.0,4.0,79,0.00,,,0.00,0,Wunderground v.1.15,2013-10-12 02:30:00,
2013-10-11 22:36:00,73.7,67.1,30.03,ESE,111,2.0,4.0,80,0.00,,,0.00,0,Wunderground v.1.15,2013-10-12 02:36:00,
2013-10-11 22:42:00,73.5,66.9,30.03,ESE,111,1.0,4.0,80,0.00,,,0.00,0,Wunderground v.1.15,2013-10-12 02:42:00,
2013-10-11 22:48:00,73.3,66.8,30.04,ESE,111,1.0,4.0,80,0.00,,,0.00,0,Wunderground v.1.15,2013-10-12 02:48:00,
2013-10-11 22:54:00,73.1,66.9,30.04,ESE,111,2.0,4.0,81,0.00,,,0.00,0,Wunderground v.1.15,2013-10-12 02:54:00,
2013-10-11 23:00:00,73.0,66.8,30.04,ESE,111,2.0,4.0,81,0.00,,,0.00,0,Wunderground v.1.15,2013-10-12 03:00:00,
2013-10-11 23:06:00,72.9,67.1,30.04,ESE,111,2.0,4.0,82,0.00,,,0.00,0,Wunderground v.1.15,2013-10-12 03:06:00,
2013-10-11 23:11:00,72.8,67.0,30.04,ESE,111,1.0,4.0,82,0.00,,,0.00,0,Wunderground v.1.15,2013-10-12 03:11:00,
2013-10-11 23:17:00,72.6,66.8,30.03,ESE,111,0.0,4.0,82,0.00,,,0.00,0,Wunderground v.1.15,2013-10-12 03:17:00,
2013-10-11 23:23:00,72.3,66.8,30.03,ESE,111,1.0,4.0,83,0.00,,,0.00,0,Wunderground v.1.15,2013-10-12 03:23:00,
2013-10-11 23:29:00,72.1,66.6,30.03,ESE,111,1.0,4.0,83,0.00,,,0.00,0,Wunderground v.1.15,2013-10-12 03:29:00,
2013-10-11 23:35:00,71.7,66.6,30.03,ESE,111,1.0,4.0,84,0.00,,,0.00,0,Wunderground v.1.15,2013-10-12 03:35:00,
2013-10-11 23:41:00,71.4,66.7,30.03,ESE,111,0.0,4.0,85,0.00,,,0.00,0,Wunderground v.1.15,2013-10-12 03:41:00,
2013-10-11 23:47:00,71.3,66.6,30.03,ESE,111,0.0,4.0,85,0.00,,,0.00,0,Wunderground v.1.15,2013-10-12 03:47:00,
2013-10-11 23:52:00,71.2,66.8,30.03,ESE,111,0.0,4.0,86,0.00,,,0.00,0,Wunderground v.1.15,2013-10-12 03:52:00,
2013-10-11 23:58:00,71.2,66.8,30.03,ESE,111,0.0,4.0,86,0.00,,,0.00,0,Wunderground v.1.15,2013-10-12 03:58:00,